Location: Scultetus-Sternwarte G�rlitz
(51.1356°N, 14.9514°E)
Time: 22:49:02
(UTC+02:00)

ISS - Visible Passes

Search period start: 26 May 2017 00:00
Search period end: 05 June 2017 00:00
Orbit: 402 x 408 km, 51.6° (Epoch: 27 May)

Date Brightness Start Highest point End Pass type
(mag) Time Alt. Az. Time Alt. Az. Time Alt. Az.
26 May -3.8 00:14:46 10° W 00:18:05 82° N 00:21:23 10° E visible
26 May -4.0 01:51:20 10° W 01:54:38 77° SSW 01:57:55 10° ESE visible
26 May -2.7 03:28:06 10° W 03:30:48 24° SW 03:33:31 10° SSE visible
26 May -3.0 21:46:46 10° SW 21:49:45 31° SSE 21:52:44 10° E visible
26 May -3.9 23:22:44 10° WSW 23:26:03 88° SSE 23:29:21 10° E visible
27 May -3.9 00:59:18 10° W 01:02:36 88° NNE 01:05:55 10° E visible
27 May -3.3 02:35:53 10° W 02:38:57 35° SSW 02:41:58 10° SE visible
27 May -3.9 22:30:43 10° WSW 22:34:01 72° SSE 22:37:18 10° E visible
28 May -3.8 00:07:14 10° W 00:10:32 80° N 00:13:50 10° E visible
28 May -3.7 01:43:47 10° W 01:47:00 51° SSW 01:47:26 47° S visible
28 May -3.7 23:15:09 10° W 23:18:28 80° N 23:21:46 10° E visible
29 May -4.0 00:51:42 10° W 00:55:00 70° SSW 00:56:01 40° SE visible
29 May -1.3 02:28:35 10° W 02:28:37 10° W 02:28:37 10° W visible
29 May -3.8 22:23:05 10° W 22:26:23 87° N 22:29:42 10° E visible
29 May -3.9 23:59:38 10° W 00:02:57 87° S 00:05:08 20° ESE visible
30 May -2.1 01:36:16 10° W 01:37:45 21° WSW 01:37:45 21° WSW visible
30 May -3.8 23:07:32 10° W 23:10:51 82° N 23:14:09 10° E visible
31 May -3.5 00:44:05 10° W 00:47:03 44° SW 00:47:03 44° SW visible
31 May -3.7 22:15:25 10° W 22:18:44 79° N 22:22:03 10° E visible
31 May -3.9 23:51:57 10° W 23:55:14 63° SSW 23:56:27 34° SE visible
01 Jun -1.2 01:29:00 10° W 01:29:05 10° W 01:29:05 10° W visible
01 Jun -3.9 22:59:51 10° W 23:03:10 81° SSW 23:05:54 14° ESE visible
02 Jun -2.3 00:36:33 10° W 00:38:33 23° WSW 00:38:33 23° WSW visible
02 Jun -3.8 22:07:43 10° W 22:11:02 85° N 22:14:20 10° E visible
02 Jun -3.2 23:44:17 10° W 23:47:24 39° SSW 23:48:03 34° S visible
03 Jun -3.7 22:52:06 10° W 22:55:22 56° SSW 22:57:34 18° SE visible
04 Jun -1.5 00:29:23 10° WSW 00:30:13 13° WSW 00:30:13 13° WSW visible
04 Jun -3.8 21:59:57 10° W 22:03:15 75° SSW 22:06:33 10° ESE visible
04 Jun -2.4 23:36:45 10° W 23:39:25 23° SW 23:39:46 22° SSW visible
